Location: Bukit Nyuki
(2.5885°N, 113.7476°E)
Time: 17:04:59
(UTC+00:00)

Meteor 1-31 Rocket - Pass Details

Date: 18 May 2021
Orbit: 521 x 545 km, 97.7° (Epoch: 20 June)

Event Time Altitude Azimuth Distance (km) Brightness Sun altitude
Rises 21:41:56 0° 347° (NNW) 2,693 6.4 -8.4°
Reaches altitude 10° 21:44:28 10° 330° (NNW) 1,802 5.4 -7.8°
Maximum altitude 21:47:22 20° 282° (WNW) 1,277 4.2 -7.1°
Drops below altitude 10° 21:50:16 10° 234° (SW) 1,802 4.8 -6.5°
Enters shadow 21:51:38 - 223° (SW) 2,259 5.4 -6.1°
